XNO232 EGSS-EDDH

Flight info

Callsign XNO232
Flight time 1h 7m
Altitude 35000
Route CLN P44 SOMVA DCT MAVAS DCT VALAM DCT GASTU DCT OSTOR/N0402F230 T904 RIBSO RIBSO7A
Aircraft A321/M-SDE3FGHIRWY/LB1

Departure

Time 2026-05-05 09:08
Airport London Stansted Airport (EGSS)

Arrival

Time 2026-05-05 10:15
Airport Hamburg Helmut Schmidt Airport (EDDH)
Time Latitude Longitude Altitude Speed Heading
2026-05-05 08:46 51.88953 0.25511 338 ft 0 kts 223°
2026-05-05 08:53 51.88963 0.25526 339 ft 4 kts 230°
2026-05-05 08:53 51.88975 0.25562 335 ft 4 kts 266°
2026-05-05 08:54 51.88970 0.25597 336 ft 2 kts 313°
2026-05-05 08:54 51.88966 0.25604 337 ft 0 kts 313°
2026-05-05 08:57 51.88971 0.25595 336 ft 2 kts 313°
2026-05-05 08:57 51.88988 0.25565 338 ft 5 kts 313°
2026-05-05 08:58 51.89019 0.25511 340 ft 8 kts 313°
2026-05-05 08:58 51.89063 0.25434 336 ft 10 kts 313°
2026-05-05 08:58 51.89112 0.25349 338 ft 10 kts 313°
2026-05-05 08:58 51.89145 0.25283 347 ft 6 kts 292°
2026-05-05 08:59 51.89134 0.25218 343 ft 8 kts 233°
2026-05-05 08:59 51.89088 0.25144 348 ft 11 kts 223°
2026-05-05 08:59 51.89025 0.25050 352 ft 13 kts 222°
2026-05-05 08:59 51.88958 0.24951 347 ft 14 kts 223°
2026-05-05 09:00 51.88886 0.24842 350 ft 14 kts 223°
2026-05-05 09:00 51.88814 0.24733 350 ft 15 kts 223°
2026-05-05 09:00 51.88737 0.24617 352 ft 15 kts 223°
2026-05-05 09:00 51.88657 0.24497 348 ft 16 kts 222°
2026-05-05 09:01 51.88573 0.24371 345 ft 17 kts 223°
2026-05-05 09:01 51.88481 0.24235 346 ft 18 kts 222°
2026-05-05 09:01 51.88384 0.24088 336 ft 20 kts 222°
2026-05-05 09:01 51.88279 0.23931 338 ft 21 kts 223°
2026-05-05 09:02 51.88168 0.23765 337 ft 22 kts 223°
2026-05-05 09:02 51.88052 0.23590 334 ft 23 kts 223°
2026-05-05 09:02 51.87932 0.23410 335 ft 24 kts 223°
2026-05-05 09:02 51.87828 0.23253 336 ft 17 kts 223°
2026-05-05 09:03 51.87755 0.23145 333 ft 9 kts 222°
2026-05-05 09:03 51.87733 0.23052 335 ft 10 kts 282°
2026-05-05 09:03 51.87774 0.22962 334 ft 10 kts 312°
2026-05-05 09:03 51.87772 0.22876 334 ft 9 kts 230°
2026-05-05 09:04 51.87738 0.22823 334 ft 13 kts 224°
2026-05-05 09:04 51.87651 0.22692 336 ft 19 kts 223°
2026-05-05 09:04 51.87561 0.22557 332 ft 19 kts 223°
2026-05-05 09:04 51.87460 0.22405 332 ft 20 kts 222°
2026-05-05 09:05 51.87406 0.22217 329 ft 8 kts 284°
2026-05-05 09:05 51.87422 0.22170 327 ft 3 kts 308°
2026-05-05 09:05 51.87428 0.22160 328 ft 0 kts 311°
2026-05-05 09:06 51.87428 0.22159 328 ft 1 kts 311°
2026-05-05 09:06 51.87444 0.22130 329 ft 6 kts 311°
2026-05-05 09:06 51.87482 0.22060 328 ft 9 kts 312°
2026-05-05 09:06 51.87541 0.22046 327 ft 10 kts 30°
2026-05-05 09:07 51.87565 0.22078 326 ft 0 kts 43°
2026-05-05 09:07 51.87608 0.22141 328 ft 35 kts 43°
2026-05-05 09:07 51.87966 0.22678 334 ft 103 kts 43°
2026-05-05 09:08 51.88639 0.23683 339 ft 158 kts 45°
2026-05-05 09:08 51.89463 0.24925 919 ft 158 kts 41°
2026-05-05 09:08 51.90264 0.26139 1691 ft 157 kts 42°
2026-05-05 09:08 51.91034 0.27411 2262 ft 165 kts 54°
2026-05-05 09:09 51.91232 0.29327 2523 ft 191 kts 103°
2026-05-05 09:09 51.90506 0.31255 2812 ft 211 kts 122°
2026-05-05 09:09 51.89926 0.33520 2934 ft 230 kts 101°
2026-05-05 09:09 51.89572 0.36181 3302 ft 247 kts 99°
2026-05-05 09:10 51.89247 0.38943 3893 ft 255 kts 99°
2026-05-05 09:10 51.88708 0.41680 3966 ft 257 kts 113°
2026-05-05 09:10 51.87928 0.44296 4005 ft 259 kts 113°
2026-05-05 09:10 51.87156 0.46918 4006 ft 258 kts 113°
2026-05-05 09:11 51.86388 0.49535 4006 ft 257 kts 113°
2026-05-05 09:11 51.85622 0.52139 4005 ft 257 kts 113°
2026-05-05 09:11 51.84852 0.54746 4003 ft 257 kts 113°
2026-05-05 09:11 51.84085 0.57351 4003 ft 256 kts 113°
2026-05-05 09:12 51.83380 0.59990 4035 ft 256 kts 105°
2026-05-05 09:12 51.83024 0.62826 4695 ft 260 kts 94°
2026-05-05 09:12 51.83006 0.65734 4932 ft 259 kts 85°
2026-05-05 09:12 51.83118 0.68634 4989 ft 259 kts 85°
2026-05-05 09:13 51.83234 0.71542 4998 ft 259 kts 85°
2026-05-05 09:13 51.83351 0.74467 5274 ft 263 kts 85°
2026-05-05 09:13 51.83468 0.77425 5835 ft 266 kts 85°
2026-05-05 09:13 51.83585 0.80414 5972 ft 267 kts 85°
2026-05-05 09:14 51.83701 0.83419 5990 ft 268 kts 85°
2026-05-05 09:14 51.83816 0.86421 5996 ft 267 kts 85°
2026-05-05 09:14 51.83932 0.89416 5996 ft 267 kts 85°
2026-05-05 09:14 51.84045 0.92418 5996 ft 268 kts 85°
2026-05-05 09:15 51.84157 0.95425 6010 ft 269 kts 85°
2026-05-05 09:15 51.84269 0.98457 6676 ft 271 kts 85°
2026-05-05 09:15 51.84380 1.01529 7352 ft 276 kts 85°
2026-05-05 09:15 51.84490 1.04651 8029 ft 280 kts 85°
2026-05-05 09:16 51.84603 1.07823 8708 ft 285 kts 85°
2026-05-05 09:16 51.84718 1.11043 9387 ft 289 kts 85°
2026-05-05 09:16 51.84902 1.14290 10052 ft 292 kts 77°
2026-05-05 09:16 51.85551 1.17424 10554 ft 300 kts 65°
2026-05-05 09:17 51.86416 1.20635 10694 ft 322 kts 65°
2026-05-05 09:17 51.87351 1.24067 10819 ft 344 kts 65°
2026-05-05 09:17 51.88345 1.27707 10948 ft 363 kts 65°
2026-05-05 09:17 51.89380 1.31514 11327 ft 374 kts 66°
2026-05-05 09:18 51.90424 1.35390 11904 ft 378 kts 66°
2026-05-05 09:18 51.91473 1.39308 12532 ft 381 kts 66°
2026-05-05 09:18 51.92526 1.43263 13163 ft 384 kts 66°
2026-05-05 09:18 51.93586 1.47246 13795 ft 387 kts 66°
2026-05-05 09:19 51.94654 1.51266 14335 ft 390 kts 66°
2026-05-05 09:19 51.95734 1.55329 14882 ft 394 kts 66°
2026-05-05 09:19 51.96824 1.59428 15419 ft 398 kts 66°
2026-05-05 09:19 51.97922 1.63571 15962 ft 402 kts 67°
2026-05-05 09:20 51.99036 1.67750 16508 ft 405 kts 65°
2026-05-05 09:20 52.00352 1.71820 17039 ft 409 kts 62°
2026-05-05 09:20 52.01716 1.75903 17567 ft 413 kts 62°
2026-05-05 09:20 52.03089 1.80019 18089 ft 417 kts 62°
2026-05-05 09:21 52.04480 1.84191 18505 ft 422 kts 62°
2026-05-05 09:21 52.05880 1.88406 18908 ft 426 kts 62°
2026-05-05 09:21 52.07293 1.92674 19311 ft 430 kts 62°
2026-05-05 09:21 52.08715 1.96966 19772 ft 433 kts 62°
2026-05-05 09:22 52.10150 2.01295 20179 ft 436 kts 62°
2026-05-05 09:22 52.11591 2.05653 20618 ft 439 kts 63°
2026-05-05 09:22 52.13041 2.10054 21019 ft 442 kts 63°
2026-05-05 09:22 52.14497 2.14484 21437 ft 445 kts 63°
2026-05-05 09:23 52.15959 2.18943 21842 ft 448 kts 63°
2026-05-05 09:23 52.17428 2.23435 22257 ft 451 kts 63°
2026-05-05 09:23 52.18908 2.27956 22653 ft 454 kts 63°
2026-05-05 09:23 52.20398 2.32507 23038 ft 457 kts 63°
2026-05-05 09:24 52.21896 2.37094 23419 ft 460 kts 63°
2026-05-05 09:24 52.23400 2.41718 23756 ft 463 kts 63°
2026-05-05 09:24 52.24908 2.46370 24077 ft 466 kts 63°
2026-05-05 09:24 52.26425 2.51056 24395 ft 468 kts 63°
2026-05-05 09:25 52.27952 2.55782 24678 ft 472 kts 63°
2026-05-05 09:25 52.29486 2.60539 24987 ft 475 kts 63°
2026-05-05 09:25 52.30854 2.65451 25294 ft 476 kts 71°
2026-05-05 09:25 52.31835 2.70627 25603 ft 478 kts 75°
2026-05-05 09:26 52.32751 2.75859 25927 ft 480 kts 75°
2026-05-05 09:26 52.33675 2.81119 26249 ft 482 kts 75°
2026-05-05 09:26 52.34604 2.86400 26584 ft 484 kts 75°
2026-05-05 09:26 52.35551 2.91779 26902 ft 487 kts 75°
2026-05-05 09:27 52.36483 2.97111 27208 ft 489 kts 75°
2026-05-05 09:27 52.37414 3.02463 27596 ft 489 kts 75°
2026-05-05 09:27 52.38340 3.07810 28003 ft 489 kts 75°
2026-05-05 09:27 52.39262 3.13157 28422 ft 488 kts 74°
2026-05-05 09:28 52.40395 3.18389 28835 ft 488 kts 66°
2026-05-05 09:28 52.41863 3.23402 29243 ft 488 kts 64°
2026-05-05 09:28 52.43355 3.28383 29661 ft 487 kts 64°
2026-05-05 09:28 52.44824 3.33303 30077 ft 487 kts 64°
2026-05-05 09:29 52.46323 3.38352 30445 ft 486 kts 64°
2026-05-05 09:29 52.47794 3.43334 30827 ft 485 kts 64°
2026-05-05 09:29 52.49254 3.48301 31250 ft 482 kts 64°
2026-05-05 09:29 52.50706 3.53250 31609 ft 481 kts 64°
2026-05-05 09:30 52.52157 3.58195 31942 ft 481 kts 65°
2026-05-05 09:30 52.53609 3.63145 32273 ft 481 kts 65°
2026-05-05 09:30 52.55055 3.68088 32622 ft 480 kts 65°
2026-05-05 09:30 52.56495 3.73028 32959 ft 479 kts 65°
2026-05-05 09:31 52.57930 3.77958 33311 ft 478 kts 65°
2026-05-05 09:31 52.59363 3.82887 33649 ft 477 kts 65°
2026-05-05 09:31 52.60793 3.87813 33985 ft 476 kts 65°
2026-05-05 09:31 52.62216 3.92725 34254 ft 476 kts 65°
2026-05-05 09:32 52.63637 3.97639 34511 ft 475 kts 65°
2026-05-05 09:32 52.65054 4.02549 34734 ft 475 kts 65°
2026-05-05 09:32 52.66474 4.07487 34922 ft 477 kts 65°
2026-05-05 09:33 52.69288 4.17322 34992 ft 478 kts 66°
2026-05-05 09:33 52.72123 4.27242 34980 ft 479 kts 65°
2026-05-05 09:34 52.74952 4.37175 34975 ft 479 kts 65°
2026-05-05 09:34 52.77780 4.47143 34975 ft 479 kts 66°
2026-05-05 09:35 52.80589 4.57113 34985 ft 479 kts 66°
2026-05-05 09:35 52.84807 4.72190 34985 ft 480 kts 66°
2026-05-05 09:36 52.87604 4.82211 34989 ft 480 kts 66°
2026-05-05 09:36 52.90398 4.92262 34993 ft 480 kts 66°
2026-05-05 09:37 52.93175 5.02313 35009 ft 480 kts 66°
2026-05-05 09:37 52.95943 5.12379 34993 ft 479 kts 66°
2026-05-05 09:38 52.98705 5.22454 34989 ft 480 kts 66°
2026-05-05 09:38 53.01465 5.32554 34994 ft 481 kts 66°
2026-05-05 09:39 53.04182 5.42704 35000 ft 481 kts 68°
2026-05-05 09:39 53.06707 5.53010 35000 ft 481 kts 69°
2026-05-05 09:40 53.09145 5.63378 34984 ft 482 kts 69°
2026-05-05 09:40 53.11613 5.73750 34994 ft 483 kts 69°
2026-05-05 09:41 53.14102 5.84121 35000 ft 482 kts 69°
2026-05-05 09:41 53.16586 5.94493 35002 ft 482 kts 69°
2026-05-05 09:42 53.19056 6.04867 35002 ft 481 kts 69°
2026-05-05 09:42 53.21512 6.15243 34987 ft 481 kts 69°
2026-05-05 09:43 53.23542 6.23883 34973 ft 482 kts 69°
2026-05-05 09:43 53.25984 6.34323 34972 ft 483 kts 69°
2026-05-05 09:44 53.28426 6.44796 34979 ft 484 kts 69°
2026-05-05 09:44 53.30867 6.55295 34985 ft 485 kts 69°
2026-05-05 09:45 53.33295 6.65818 34988 ft 485 kts 69°
2026-05-05 09:45 53.35716 6.76366 34975 ft 487 kts 70°
2026-05-05 09:46 53.38141 6.86970 34969 ft 488 kts 70°
2026-05-05 09:46 53.40566 6.97608 34973 ft 489 kts 70°
2026-05-05 09:47 53.42980 7.08276 34979 ft 490 kts 70°
2026-05-05 09:47 53.45381 7.18942 34984 ft 485 kts 70°
2026-05-05 09:48 53.46557 7.24192 34772 ft 477 kts 70°
2026-05-05 09:48 53.47718 7.29382 34356 ft 473 kts 70°
2026-05-05 09:48 53.48872 7.34543 33893 ft 471 kts 70°
2026-05-05 09:48 53.50013 7.39666 33176 ft 466 kts 70°
2026-05-05 09:49 53.51141 7.44752 32639 ft 465 kts 70°
2026-05-05 09:49 53.52265 7.49827 32109 ft 462 kts 70°
2026-05-05 09:49 53.53380 7.54882 31585 ft 460 kts 70°
2026-05-05 09:49 53.54485 7.59910 31085 ft 458 kts 70°
2026-05-05 09:50 53.55587 7.64920 30579 ft 455 kts 70°
2026-05-05 09:50 53.56680 7.69893 30091 ft 452 kts 70°
2026-05-05 09:50 53.57766 7.74846 29522 ft 450 kts 70°
2026-05-05 09:50 53.58842 7.79771 28946 ft 447 kts 70°
2026-05-05 09:51 53.59911 7.84672 28388 ft 445 kts 70°
2026-05-05 09:51 53.60970 7.89547 27843 ft 442 kts 70°
2026-05-05 09:51 53.62018 7.94400 27315 ft 440 kts 70°
2026-05-05 09:51 53.63060 7.99230 26780 ft 438 kts 70°
2026-05-05 09:52 53.64078 8.04049 26262 ft 436 kts 71°
2026-05-05 09:52 53.65036 8.08881 25758 ft 434 kts 72°
2026-05-05 09:52 53.65951 8.13720 25262 ft 432 kts 72°
2026-05-05 09:52 53.66843 8.18535 24765 ft 427 kts 72°
2026-05-05 09:53 53.67725 8.23311 24287 ft 426 kts 72°
2026-05-05 09:53 53.68613 8.28086 23816 ft 426 kts 72°
2026-05-05 09:53 53.69504 8.32847 23310 ft 426 kts 72°
2026-05-05 09:53 53.70401 8.37603 22771 ft 425 kts 72°
2026-05-05 09:54 53.71298 8.42349 22235 ft 424 kts 72°
2026-05-05 09:54 53.72193 8.47094 21706 ft 424 kts 72°
2026-05-05 09:54 53.73081 8.51828 21184 ft 422 kts 72°
2026-05-05 09:54 53.73966 8.56546 20665 ft 421 kts 72°
2026-05-05 09:55 53.74844 8.61249 20172 ft 419 kts 72°
2026-05-05 09:55 53.75714 8.65930 19670 ft 417 kts 72°
2026-05-05 09:55 53.76579 8.70591 19187 ft 415 kts 72°
2026-05-05 09:55 53.77439 8.75231 18685 ft 413 kts 72°
2026-05-05 09:56 53.78294 8.79857 18181 ft 411 kts 72°
2026-05-05 09:56 53.79142 8.84457 17604 ft 409 kts 72°
2026-05-05 09:56 53.79975 8.88990 17030 ft 394 kts 72°
2026-05-05 09:56 53.80760 8.93305 16481 ft 374 kts 72°
2026-05-05 09:57 53.81505 8.97413 15943 ft 356 kts 72°
2026-05-05 09:57 53.82221 9.01346 15412 ft 346 kts 72°
2026-05-05 09:57 53.82719 9.05238 14902 ft 341 kts 84°
2026-05-05 09:57 53.82731 9.09221 14391 ft 337 kts 96°
2026-05-05 09:58 53.82502 9.13157 13894 ft 334 kts 96°
2026-05-05 09:58 53.82273 9.17061 13344 ft 334 kts 96°
2026-05-05 09:58 53.82042 9.20987 12794 ft 336 kts 96°
2026-05-05 09:58 53.81810 9.24940 12228 ft 330 kts 96°
2026-05-05 09:59 53.81587 9.28781 11666 ft 325 kts 97°
2026-05-05 09:59 53.81250 9.32469 11119 ft 318 kts 107°
2026-05-05 09:59 53.80448 9.35935 10780 ft 309 kts 121°
2026-05-05 09:59 53.79302 9.38989 10538 ft 307 kts 126°
2026-05-05 10:00 53.78115 9.41971 10291 ft 305 kts 126°
2026-05-05 10:00 53.76761 9.44624 10043 ft 293 kts 146°
2026-05-05 10:00 53.74980 9.46104 9792 ft 283 kts 169°
2026-05-05 10:00 53.73050 9.46258 9534 ft 275 kts 192°
2026-05-05 10:01 53.71311 9.45185 9399 ft 261 kts 212°
2026-05-05 10:01 53.69738 9.43777 9259 ft 252 kts 196°
2026-05-05 10:01 53.68018 9.43645 9091 ft 247 kts 171°
2026-05-05 10:01 53.66362 9.44407 8978 ft 248 kts 167°
2026-05-05 10:02 53.64696 9.45155 8829 ft 247 kts 168°
2026-05-05 10:02 53.63026 9.45844 8667 ft 247 kts 169°
2026-05-05 10:02 53.61359 9.46506 8502 ft 246 kts 169°
2026-05-05 10:02 53.59691 9.47163 8339 ft 246 kts 169°
2026-05-05 10:03 53.58025 9.47820 8177 ft 246 kts 169°
2026-05-05 10:03 53.56361 9.48476 8020 ft 245 kts 169°
2026-05-05 10:03 53.54701 9.49127 7863 ft 245 kts 168°
2026-05-05 10:03 53.53038 9.49779 7699 ft 245 kts 168°
2026-05-05 10:04 53.51363 9.50149 7534 ft 241 kts 186°
2026-05-05 10:04 53.49758 9.49460 7378 ft 239 kts 208°
2026-05-05 10:04 53.48442 9.47802 7223 ft 237 kts 230°
2026-05-05 10:04 53.47382 9.45688 7064 ft 236 kts 231°
2026-05-05 10:05 53.46325 9.43578 6903 ft 236 kts 231°
2026-05-05 10:05 53.45271 9.41485 6748 ft 234 kts 231°
2026-05-05 10:05 53.44218 9.39400 6581 ft 235 kts 230°
2026-05-05 10:05 53.43150 9.37316 6417 ft 236 kts 226°
2026-05-05 10:06 53.41759 9.35934 6235 ft 237 kts 193°
2026-05-05 10:06 53.40126 9.36108 6093 ft 240 kts 158°
2026-05-05 10:06 53.38743 9.37681 5929 ft 243 kts 141°
2026-05-05 10:06 53.37453 9.39520 5751 ft 243 kts 137°
2026-05-05 10:07 53.36515 9.41835 5542 ft 244 kts 107°
2026-05-05 10:07 53.36433 9.44645 5382 ft 245 kts 75°
2026-05-05 10:07 53.37238 9.47099 5210 ft 241 kts 42°
2026-05-05 10:07 53.38489 9.49030 5052 ft 257 kts 49°
2026-05-05 10:08 53.39519 9.51508 4896 ft 257 kts 54°
2026-05-05 10:08 53.40593 9.53866 4688 ft 251 kts 49°
2026-05-05 10:08 53.41698 9.56062 4514 ft 242 kts 49°
2026-05-05 10:08 53.42775 9.58186 4360 ft 237 kts 49°
2026-05-05 10:09 53.43835 9.60293 4208 ft 236 kts 49°
2026-05-05 10:09 53.44889 9.62393 4061 ft 235 kts 49°
2026-05-05 10:09 53.45938 9.64484 3911 ft 234 kts 49°
2026-05-05 10:09 53.46983 9.66569 3759 ft 233 kts 49°
2026-05-05 10:10 53.48024 9.68647 3611 ft 232 kts 49°
2026-05-05 10:10 53.49054 9.70705 3459 ft 226 kts 49°
2026-05-05 10:10 53.50041 9.72680 3337 ft 214 kts 49°
2026-05-05 10:10 53.50966 9.74532 3209 ft 199 kts 50°
2026-05-05 10:11 53.51819 9.76241 3116 ft 185 kts 50°
2026-05-05 10:11 53.52628 9.77862 2934 ft 178 kts 50°
2026-05-05 10:11 53.53414 9.79438 2717 ft 173 kts 50°
2026-05-05 10:11 53.54176 9.80968 2504 ft 165 kts 50°
2026-05-05 10:12 53.54895 9.82411 2275 ft 158 kts 50°
2026-05-05 10:12 53.55567 9.83760 2073 ft 145 kts 51°
2026-05-05 10:12 53.56203 9.85039 1877 ft 140 kts 51°
2026-05-05 10:12 53.56824 9.86289 1687 ft 139 kts 51°
2026-05-05 10:13 53.57442 9.87533 1492 ft 138 kts 51°
2026-05-05 10:13 53.58056 9.88769 1305 ft 138 kts 50°
2026-05-05 10:13 53.58670 9.90006 1093 ft 137 kts 50°
2026-05-05 10:13 53.59279 9.91241 905 ft 137 kts 49°
2026-05-05 10:14 53.59889 9.92471 701 ft 137 kts 50°
2026-05-05 10:14 53.60498 9.93701 520 ft 137 kts 50°
2026-05-05 10:14 53.61116 9.94943 358 ft 139 kts 51°
2026-05-05 10:14 53.61731 9.96188 173 ft 138 kts 51°
2026-05-05 10:15 53.62334 9.97417 49 ft 129 kts 46°
2026-05-05 10:15 53.62818 9.98384 50 ft 84 kts 50°
2026-05-05 10:15 53.63042 9.98835 49 ft 23 kts 50°
2026-05-05 10:15 53.63090 9.99047 51 ft 17 kts 82°
2026-05-05 10:16 53.63087 9.99201 50 ft 7 kts 103°
2026-05-05 10:16 53.63064 9.99255 50 ft 5 kts 136°
2026-05-05 10:16 53.63044 9.99282 50 ft 4 kts 146°
2026-05-05 10:16 53.63010 9.99310 50 ft 7 kts 154°
2026-05-05 10:17 53.62958 9.99353 49 ft 9 kts 152°
2026-05-05 10:17 53.62906 9.99399 50 ft 9 kts 152°
2026-05-05 10:17 53.62846 9.99451 49 ft 9 kts 152°
2026-05-05 10:17 53.62795 9.99495 50 ft 7 kts 153°
2026-05-05 10:18 53.62758 9.99528 49 ft 5 kts 152°
2026-05-05 10:18 53.62728 9.99555 50 ft 5 kts 151°
2026-05-05 10:18 53.62683 9.99596 50 ft 9 kts 152°
2026-05-05 10:18 53.62675 9.99604 50 ft 0 kts 151°
2026-05-05 10:19 53.62667 9.99611 50 ft 3 kts 152°
2026-05-05 10:19 53.62644 9.99644 50 ft 6 kts 128°
2026-05-05 10:19 53.62636 9.99729 50 ft 9 kts 82°
2026-05-05 10:19 53.62671 9.99837 49 ft 12 kts 40°
2026-05-05 10:20 53.62741 9.99906 49 ft 10 kts 29°
2026-05-05 10:20 53.62790 9.99950 48 ft 6 kts 27°
2026-05-05 10:20 53.62821 9.99978 50 ft 4 kts 30°
2026-05-05 10:20 53.62839 9.99999 50 ft 3 kts 35°
2026-05-05 10:21 53.62867 10.00041 50 ft 7 kts 43°
2026-05-05 10:21 53.62917 10.00102 51 ft 10 kts 32°
2026-05-05 10:21 53.62975 10.00163 51 ft 9 kts 32°
2026-05-05 10:21 53.63038 10.00229 51 ft 10 kts 32°
2026-05-05 10:22 53.63085 10.00260 51 ft 6 kts
2026-05-05 10:22 53.63113 10.00259 51 ft 6 kts 358°
2026-05-05 10:22 53.63152 10.00255 51 ft 7 kts 355°
2026-05-05 10:22 53.63186 10.00251 51 ft 2 kts
2026-05-05 10:23 53.63196 10.00264 51 ft 1 kts 47°
2026-05-05 10:23 53.63204 10.00301 51 ft 4 kts 77°
2026-05-05 10:23 53.63206 10.00339 51 ft 2 kts 85°
2026-05-05 10:23 53.63207 10.00354 51 ft 0 kts 86°
2026-05-05 10:24 53.63207 10.00355 51 ft 0 kts 86°
2026-05-05 10:24 53.63207 10.00358 51 ft 0 kts 86°